Content
SEND FEEDBACK

Daily
Averages
Monthly
Summary
Romania

MAMAIA, ROMANIA


Home > Europe > Romania
Elevation: 14 meters     Latitude: 44 13N     Longitude: 028 37E

WEATHER
 
SELECT A DAY
Number of Records: 284,434;   Date Range: 7/1/96 - 12/16/14
 
SHARE

PRINT THIS DATA

[ ← Previous Day ]
WEATHER ALMANAC - 31 JANUARY, 2013
[ Next Day → ]
[ °F ]   °C
Weather ElementAverageHighLow
Temperature0.9 °C4 °C (5:30 pm)-3 °C (12:30 am)
Dewpoint-0.2 °C3 °C (5:30 pm)-4 °C (12:30 am)
Humidity92.7 %93 % (12:30 am)87 % (10:30 am)
Barometer1009.8 hPa1014.2 hPa (12:30 am)1006.1 hPa (1:00 pm)
Wind Speed15 km/h33.3 km/h (5:30 pm)
Weather ElementAverage
Visibility3.1 km
Wind DirectionSW (229.8 °)

Weather ElementTotal
Precipitation---
Heating Degree Days17.8 (Base 18.3)
Averaged from 47 records on 31 January, 2013
WEATHER CONDITIONS BREAKOUT
WIND DIRECTION BREAKOUT
WEATHER BY HOUR - 31 JANUARY, 2013
[ °F ]   °C
Local TimeTemperatureDewpointHumidityBarometerVisibilityWind DirectionWind SpeedGust SpeedPrecipitationEventsConditions
12:30 AM-3 °C-4 °C93 %1014.2 hPa0.2 kmSouth (180°)5.6 km/hFogLight Freezing Fog
1:00 AM-3 °C-4 °C93 %1014.2 hPa0.3 kmSSW (200°)7.4 km/hFogLight Freezing Fog
1:30 AM-2 °C-3 °C93 %1014.2 hPa0.5 kmSSW (210°)7.4 km/hFogLight Freezing Fog
2:00 AM-3 °C-4 °C93 %1013.2 hPa0.6 kmSSW (210°)7.4 km/hFogLight Freezing Fog
2:30 AM-2 °C-3 °C93 %1013.2 hPa0.8 kmSW (220°)9.3 km/hFogLight Freezing Fog
3:00 AM-2 °C-3 °C93 %1013.2 hPa1 kmSSW (200°)5.6 km/hMist
3:30 AM-2 °C-3 °C93 %1012.2 hPa1 kmSouth (180°)5.6 km/hPartly Cloudy
4:00 AM-2 °C-3 °C93 %1012.2 hPa2.6 kmSouth (190°)5.6 km/hMist
4:30 AM-2 °C-3 °C93 %1011.2 hPa2.6 kmSouth (190°)7.4 km/hMist
5:00 AM-2 °C-3 °C93 %1011.2 hPa2.6 kmSSW (200°)9.3 km/hMist
5:30 AM-1 °C-2 °C93 %1011.2 hPa2.6 kmSouth (180°)13 km/hMist
6:00 AM-1 °C-2 °C93 %1010.2 hPa1.9 kmSouth (170°)9.3 km/hMist
6:30 AM-1 °C-2 °C93 %1010.2 hPa1.9 kmSSE (160°)13 km/hMist
7:00 AM0 °C-1 °C93 %1009.1 hPa2.6 kmSouth (180°)14.8 km/hMist
7:30 AM0 °C-1 °C93 %1009.1 hPa4 kmSouth (180°)13 km/hPartly Cloudy
8:00 AM0 °C-1 °C93 %1009.1 hPa5 kmSouth (180°)14.8 km/hMist
8:30 AM0 °C-1 °C93 %1009.1 hPa5 kmSSW (200°)13 km/hPartly Cloudy
9:00 AM1 °C0 °C93 %1008.1 hPa3.5 kmSouth (190°)14.8 km/hRainLight Rain
9:30 AM1 °C0 °C93 %1008.1 hPa4 kmSouth (190°)18.5 km/hPartly Cloudy
10:00 AM1 °C0 °C93 %1008.1 hPa5 kmSSW (200°)16.7 km/hRainLight Rain
10:30 AM2 °C0 °C87 %1008.1 hPa4 kmSSW (200°)18.5 km/hRainLight Rain
11:00 AM2 °C1 °C93 %1008.1 hPa4 kmSSW (210°)16.7 km/hRainLight Rain
11:30 AM2 °C1 °C93 %1008.1 hPa3.1 kmSW (220°)16.7 km/hRainLight Rain
12:00 PM2 °C1 °C93 %1007.1 hPa3.1 kmSSW (200°)18.5 km/hRainLight Rain
12:30 PM2 °C1 °C93 %1007.1 hPa4 kmSW (220°)13 km/hRainLight Rain
1:00 PM2 °C1 °C93 %1006.1 hPa2.6 kmSW (230°)16.7 km/hRainLight Rain
1:30 PM3 °C2 °C93 %1006.1 hPa2.7 kmSW (230°)18.5 km/hRainLight Rain
2:00 PM3 °C2 °C93 %1006.1 hPa1.8 kmWSW (240°)18.5 km/hRainLight Rain
2:30 PM3 °C2 °C93 %1006.1 hPa1.8 kmWest (270°)20.4 km/hRainLight Rain
3:00 PM3 °C2 °C93 %1007.1 hPa1.8 kmWest (280°)25.9 km/hRainLight Rain
3:30 PM3 °C2 °C93 %1007.1 hPa1.4 kmWNW (300°)18.5 km/hRainLight Rain
4:00 PM3 °C2 °C93 %1007.1 hPa1.9 kmNW (310°)20.4 km/hRainLight Rain
4:30 PM3 °C2 °C93 %1008.1 hPa2.6 kmNW (310°)18.5 km/hRainLight Rain
5:00 PM3 °C2 °C93 %1009.1 hPa3.1 kmNW (320°)20.4 km/hRainLight Rain
5:30 PM4 °C3 °C93 %1009.1 hPa6.9 kmNorth (350°)33.3 km/hScattered Clouds
6:00 PM4 °C2 °C87 %1008.1 hPa10 kmNorth (10°)25.9 km/hMostly Cloudy
6:30 PM3 °C2 °C93 %1010.2 hPa10 kmWest (270°)20.4 km/hScattered Clouds
7:00 PM2 °C1 °C93 %1010.2 hPa5 kmWest (270°)11.1 km/hMist
7:30 PM2 °C1 °C93 %1010.2 hPa1.9 kmWest (280°)13 km/hMist
8:00 PM2 °C1 °C93 %1010.2 hPa1.8 kmWest (280°)18.5 km/hMist
8:30 PM1 °C0 °C93 %1010.2 hPa1.8 kmWest (280°)18.5 km/hMist
9:00 PM1 °C0 °C93 %1011.2 hPa1.9 kmWNW (290°)14.8 km/hMist
9:30 PM2 °C1 °C93 %1011.2 hPa3.1 kmWNW (290°)16.7 km/hMist
10:00 PM2 °C1 °C93 %1011.2 hPa3.1 kmWNW (290°)14.8 km/hMist
10:30 PM2 °C1 °C93 %1011.2 hPa3.1 kmWest (280°)14.8 km/hMist
11:00 PM2 °C1 °C93 %1012.2 hPa3.1 kmWest (280°)16.7 km/hScattered Clouds
11:30 PM2 °C1 °C93 %1012.2 hPa3.1 kmWest (280°)14.8 km/hMostly Cloudy
Hourly data recorded from LRCK, located 0 kilometers away from Mamaia, Romania







STORIES FROM OUR PARTNERS